• In Hungary
  • List of Countries
  • For 7 days
  • Water Temperature
  • Satellite Maps
  • Weather Map
  • News
  • Weather Widgets
  • user-avatar
    Login

    Hourly Weather Addi-Ugri

    Today, 12 December, Tuesday

    Time Temperature Precipitation Wind Pressure Humidity
    00:00 +16°C° 0 mm 2 mps 601 mmHg 57%
    01:00 +15°C° 0 mm 2 mps 601 mmHg 59%
    02:00 +15°C° 0 mm 2 mps 601 mmHg 60%
    03:00 +14°C° 0 mm 2 mps 601 mmHg 62%
    04:00 +14°C° 0 mm 2 mps 601 mmHg 63%
    05:00 +13°C° 0 mm 2 mps 601 mmHg 64%
    06:00 +13°C° 0 mm 2 mps 600 mmHg 65%
    07:00 +14°C° 0 mm 2 mps 601 mmHg 57%
    08:00 +16°C° 0 mm 2 mps 602 mmHg 49%
    09:00 +18°C° 0 mm 2 mps 603 mmHg 41%
    10:00 +19°C° 0 mm 2 mps 603 mmHg 34%
    11:00 +21°C° 0 mm 3 mps 604 mmHg 27%
    12:00 +24°C° 0 mm 3 mps 604 mmHg 20%
    13:00 +25°C° 0 mm 3 mps 604 mmHg 19%
    14:00 +25°C° 0 mm 3 mps 604 mmHg 18%
    15:00 +26°C° 0 mm 3 mps 604 mmHg 17%
    16:00 +24°C° 0 mm 3 mps 603 mmHg 21%
    17:00 +22°C° 0 mm 3 mps 603 mmHg 25%
    18:00 +21°C° 0 mm 3 mps 602 mmHg 29%
    19:00 +19°C° 0 mm 3 mps 602 mmHg 34%
    20:00 +18°C° 0 mm 3 mps 602 mmHg 39%
    21:00 +17°C° 0 mm 3 mps 602 mmHg 44%
    22:00 +16°C° 0 mm 2 mps 602 mmHg 47%
    23:00 +16°C° 0 mm 2 mps 602 mmHg 51%

    Tomorrow, 13 December, Wednesday

    Time Temperature Precipitation Wind Pressure Humidity
    00:00 +15°C° 0 mm 2 mps 601 mmHg 54%
    01:00 +14°C° 0 mm 2 mps 601 mmHg 56%
    02:00 +14°C° 0 mm 2 mps 601 mmHg 58%
    03:00 +13°C° 0 mm 2 mps 600 mmHg 60%
    04:00 +13°C° 0 mm 2 mps 600 mmHg 60%
    05:00 +13°C° 0 mm 2 mps 600 mmHg 60%
    06:00 +12°C° 0 mm 2 mps 600 mmHg 61%
    07:00 +14°C° 0 mm 2 mps 601 mmHg 52%
    08:00 +16°C° 0 mm 2 mps 602 mmHg 44%
    09:00 +18°C° 0 mm 2 mps 603 mmHg 36%
    10:00 +19°C° 0 mm 2 mps 603 mmHg 30%
    11:00 +21°C° 0 mm 2 mps 604 mmHg 24%
    12:00 +24°C° 0 mm 2 mps 604 mmHg 19%
    13:00 +25°C° 0 mm 2 mps 604 mmHg 17%
    14:00 +25°C° 0 mm 2 mps 603 mmHg 16%
    15:00 +26°C° 0 mm 1 mps 603 mmHg 14%
    16:00 +25°C° 0 mm 2 mps 602 mmHg 17%
    17:00 +23°C° 0 mm 2 mps 602 mmHg 19%
    18:00 +21°C° 0 mm 2 mps 601 mmHg 22%
    19:00 +20°C° 0 mm 2 mps 601 mmHg 26%
    20:00 +19°C° 0 mm 2 mps 601 mmHg 30%
    21:00 +18°C° 0 mm 2 mps 601 mmHg 34%
    22:00 +17°C° 0 mm 2 mps 601 mmHg 37%
    23:00 +16°C° 0 mm 2 mps 600 mmHg 40%

    Day after tomorrow, 14 December, Thursday

    Time Temperature Precipitation Wind Pressure Humidity
    00:00 +16°C° 0 mm 2 mps 600 mmHg 43%
    01:00 +15°C° 0 mm 1 mps 600 mmHg 44%
    02:00 +15°C° 0 mm 1 mps 599 mmHg 45%
    03:00 +14°C° 0 mm 1 mps 599 mmHg 46%
    04:00 +14°C° 0 mm 1 mps 599 mmHg 44%
    05:00 +13°C° 0 mm 1 mps 598 mmHg 43%
    06:00 +13°C° 0 mm 1 mps 598 mmHg 41%
    07:00 +15°C° 0 mm 1 mps 600 mmHg 34%
    08:00 +18°C° 0 mm 1 mps 601 mmHg 26%
    09:00 +20°C° 0 mm 1 mps 602 mmHg 19%
    10:00 +22°C° 0 mm 1 mps 603 mmHg 17%
    11:00 +23°C° 0 mm 1 mps 603 mmHg 15%
    12:00 +25°C° 0 mm 1 mps 603 mmHg 13%
    13:00 +25°C° 0 mm 2 mps 603 mmHg 13%
    14:00 +26°C° 0 mm 2 mps 602 mmHg 14%
    15:00 +26°C° 0 mm 3 mps 602 mmHg 14%
    16:00 +25°C° 0 mm 2 mps 601 mmHg 16%
    17:00 +24°C° 0 mm 2 mps 601 mmHg 19%
    18:00 +21°C° 0 mm 2 mps 601 mmHg 21%
    19:00 +20°C° 0 mm 2 mps 601 mmHg 24%
    20:00 +20°C° 0 mm 1 mps 601 mmHg 27%
    21:00 +19°C° 0 mm 1 mps 601 mmHg 30%
    22:00 +18°C° 0 mm 1 mps 600 mmHg 31%
    23:00 +16°C° 0 mm 0 mps 600 mmHg 31%

    15 December, Friday

    Time Temperature Precipitation Wind Pressure Humidity
    00:00 +15°C° 0 mm 0 mps 600 mmHg 32%
    01:00 +14°C° 0 mm 0 mps 599 mmHg 31%
    02:00 +14°C° 0 mm 0 mps 599 mmHg 31%
    03:00 +13°C° 0 mm 0 mps 598 mmHg 30%
    04:00 +13°C° 0 mm 0 mps 598 mmHg 31%
    05:00 +13°C° 0 mm 0 mps 598 mmHg 31%
    06:00 +12°C° 0 mm 0 mps 598 mmHg 32%
    07:00 +14°C° 0 mm 0 mps 599 mmHg 30%
    08:00 +16°C° 0 mm 0 mps 601 mmHg 27%
    09:00 +18°C° 0 mm 0 mps 602 mmHg 25%
    10:00 +21°C° 0 mm 1 mps 602 mmHg 24%
    11:00 +23°C° 0 mm 1 mps 602 mmHg 23%
    12:00 +24°C° 0 mm 2 mps 603 mmHg 22%
    13:00 +24°C° 0 mm 3 mps 602 mmHg 21%
    14:00 +25°C° 0 mm 3 mps 602 mmHg 20%
    15:00 +26°C° 0 mm 4 mps 602 mmHg 19%
    16:00 +23°C° 0 mm 4 mps 602 mmHg 22%
    17:00 +22°C° 0 mm 3 mps 601 mmHg 26%
    18:00 +21°C° 0 mm 3 mps 601 mmHg 29%
    19:00 +20°C° 0 mm 2 mps 601 mmHg 34%
    20:00 +19°C° 0 mm 2 mps 601 mmHg 39%
    21:00 +18°C° 0 mm 1 mps 601 mmHg 44%
    22:00 +18°C° 0 mm 1 mps 601 mmHg 47%
    23:00 +16°C° 0 mm 1 mps 601 mmHg 51%

    16 December, Saturday

    Time Temperature Precipitation Wind Pressure Humidity
    00:00 +16°C° 0 mm 1 mps 600 mmHg 54%
    01:00 +15°C° 0 mm 1 mps 600 mmHg 56%
    02:00 +15°C° 0 mm 1 mps 599 mmHg 58%
    03:00 +14°C° 0 mm 1 mps 599 mmHg 61%
    04:00 +14°C° 0 mm 1 mps 599 mmHg 62%
    05:00 +14°C° 0 mm 1 mps 599 mmHg 64%
    06:00 +13°C° 0 mm 1 mps 599 mmHg 66%
    07:00 +15°C° 0 mm 2 mps 600 mmHg 60%
    08:00 +16°C° 0 mm 2 mps 601 mmHg 55%
    09:00 +17°C° 0 mm 2 mps 602 mmHg 49%
    10:00 +19°C° 0 mm 2 mps 602 mmHg 43%
    11:00 +21°C° 0 mm 1 mps 602 mmHg 37%
    12:00 +23°C° 0 mm 1 mps 602 mmHg 30%
    13:00 +23°C° 0 mm 2 mps 602 mmHg 30%
    14:00 +24°C° 0 mm 2 mps 602 mmHg 29%
    15:00 +24°C° 0 mm 2 mps 601 mmHg 28%
    16:00 +22°C° 0 mm 3 mps 601 mmHg 32%
    17:00 +21°C° 0 mm 3 mps 601 mmHg 36%
    18:00 +20°C° 0 mm 3 mps 601 mmHg 41%
    19:00 +19°C° 0 mm 3 mps 601 mmHg 47%
    20:00 +18°C° 0 mm 3 mps 601 mmHg 53%
    21:00 +17°C° 0 mm 3 mps 601 mmHg 59%
    22:00 +17°C° 0 mm 2 mps 601 mmHg 62%
    23:00 +16°C° 0 mm 2 mps 600 mmHg 66%

    17 December, Sunday

    Time Temperature Precipitation Wind Pressure Humidity
    00:00 +16°C° 0 mm 2 mps 600 mmHg 70%
    01:00 +15°C° 0 mm 2 mps 600 mmHg 72%
    02:00 +15°C° 0 mm 2 mps 599 mmHg 74%
    03:00 +14°C° 0 mm 2 mps 599 mmHg 76%
    04:00 +14°C° 0 mm 2 mps 599 mmHg 76%
    05:00 +14°C° 0 mm 2 mps 599 mmHg 77%
    06:00 +13°C° 0 mm 2 mps 599 mmHg 78%
    07:00 +14°C° 0 mm 2 mps 600 mmHg 71%
    08:00 +16°C° 0 mm 2 mps 601 mmHg 63%
    09:00 +17°C° 0 mm 2 mps 602 mmHg 56%
    10:00 +19°C° 0 mm 2 mps 602 mmHg 48%
    11:00 +21°C° 0 mm 1 mps 602 mmHg 40%
    12:00 +23°C° 0 mm 1 mps 602 mmHg 32%
    13:00 +23°C° 0 mm 1 mps 602 mmHg 30%
    14:00 +24°C° 0 mm 2 mps 602 mmHg 29%
    15:00 +25°C° 0 mm 2 mps 602 mmHg 27%
    16:00 +24°C° 0 mm 3 mps 601 mmHg 32%
    17:00 +22°C° 0 mm 3 mps 601 mmHg 36%
    18:00 +20°C° 0 mm 3 mps 601 mmHg 40%
    19:00 +19°C° 0 mm 3 mps 601 mmHg 46%
    20:00 +18°C° 0 mm 3 mps 601 mmHg 52%
    21:00 +17°C° 0 mm 3 mps 601 mmHg 58%
    22:00 +17°C° 0 mm 2 mps 601 mmHg 62%
    23:00 +16°C° 0 mm 2 mps 601 mmHg 65%
    Show more